This is the latest recevied weather packets stored in our database for station/object SP4MAZ-13. If no packets are shown the sender has not sent any weather packets the latest 1 day(s).
| Time | Temp. | Humidity | Pressure | Rain* | Wind** | Luminosity | Snow |
|---|---|---|---|---|---|---|---|
| 1778005304 | 12.78° C | 70% | 2147.4 hPa | - | 0.45 m/s, 120° | - | - |
| 1778005000 | 12.78° C | 71% | 2147.4 hPa | - | 0.45 m/s, 120° | - | - |
| 1778004699 | 12.78° C | 74% | 2147.4 hPa | - | 0.45 m/s, 120° | - | - |
| 1778004397 | 12.78° C | 69% | 2147.4 hPa | - | 0.45 m/s, 120° | - | - |
| 1778004093 | 13.33° C | 68% | 2147.4 hPa | - | 0.45 m/s, 120° | - | - |
| 1778003792 | 13.33° C | 70% | 2147.4 hPa | - | 0.45 m/s, 120° | - | - |
| 1778003490 | 13.33° C | 74% | 2147.4 hPa | - | 0.45 m/s, 120° | - | - |
| 1778003186 | 13.89° C | 76% | 2147.4 hPa | - | 0.45 m/s, 120° | - | - |
| 1778002885 | 14.44° C | 83% | 2147.4 hPa | - | 0.45 m/s, 120° | - | - |
| 1778002582 | 14.44° C | 90% | 2147.4 hPa | - | 0.45 m/s, 120° | - | - |
| 1778002280 | 14.44° C | 89% | 2147.4 hPa | - | 0.45 m/s, 120° | - | - |
| 1778001977 | 13.89° C | 92% | 2147.4 hPa | - | 0.45 m/s, 120° | - | - |
| 1778001674 | 14.44° C | 89% | 2147.4 hPa | - | 0.45 m/s, 120° | - | - |
| 1778001370 | 14.44° C | 91% | 2147.4 hPa | - | 0.45 m/s, 120° | - | - |
| 1778001067 | 14.44° C | 89% | 2147.4 hPa | - | 0.45 m/s, 120° | - | - |
| 1778000766 | 14.44° C | 90% | 2147.4 hPa | - | 0.45 m/s, 120° | - | - |
| 1778000462 | 14.44° C | 88% | 2147.4 hPa | - | 0.45 m/s, 120° | - | - |
| 1778000161 | 14.44° C | 86% | 2147.4 hPa | - | 0.45 m/s, 120° | - | - |
| 1777999857 | 14.44° C | 87% | 2147.4 hPa | - | 0.45 m/s, 120° | - | - |
| 1777999554 | 15° C | 83% | 2147.4 hPa | - | 0.45 m/s, 120° | - | - |
| 1777999250 | 15° C | 83% | 2147.4 hPa | - | 0.45 m/s, 120° | - | - |
| 1777998947 | 15° C | 80% | 2147.4 hPa | - | 0.45 m/s, 120° | - | - |
| 1777998646 | 15.56° C | 80% | 2147.4 hPa | - | 0.45 m/s, 120° | - | - |
| 1777998342 | 15° C | 82% | 2147.4 hPa | - | 0.45 m/s, 120° | - | - |
| 1777998038 | 15.56° C | 81% | 2147.4 hPa | - | 0.45 m/s, 120° | - | - |
* Rain since midnight (hover to see other rain measurements)
** Current wind speed in m/s (hover to see current wind gust speed)